Time,TemperatureF,DewpointF,PressureIn,WindDirection,WindDirectionDegrees,WindSpeedMPH,WindSpeedGustMPH,Humidity,HourlyPrecipIn,Conditions,Clouds,dailyrainin,SoftwareType,DateUTC
2013-08-09 00:04:00,55.4,37.1,29.98,NW,315,0.0,0.0,50,0.00,RA,,0.00,WeatherDisplay:10.37,2013-08-09 07:04:00,
2013-08-09 00:09:00,55.4,37.1,29.98,NW,315,1.2,1.2,50,0.00,RA,,0.00,WeatherDisplay:10.37,2013-08-09 07:09:00,
2013-08-09 00:14:00,55.4,37.1,29.98,SW,225,3.5,0.0,50,0.00,CLR,,0.00,WeatherDisplay:10.37,2013-08-09 07:14:00,
2013-08-09 00:19:00,55.4,37.1,29.98,SW,225,1.2,1.2,50,0.00,CLR,,0.00,WeatherDisplay:10.37,2013-08-09 07:19:00,
2013-08-09 00:24:00,55.2,36.9,29.98,South,180,2.3,0.0,50,0.00,CLR,,0.00,WeatherDisplay:10.37,2013-08-09 07:24:00,
2013-08-09 00:29:00,55.4,37.6,29.98,South,180,1.2,0.0,51,0.00,CLR,,0.00,WeatherDisplay:10.37,2013-08-09 07:29:00,
2013-08-09 00:34:00,55.2,37.4,29.98,West,270,2.3,0.0,51,0.00,CLR,,0.00,WeatherDisplay:10.37,2013-08-09 07:34:00,
2013-08-09 00:39:00,55.4,38.1,29.98,SW,225,1.2,0.0,52,0.00,CLR,,0.00,WeatherDisplay:10.37,2013-08-09 07:39:00,
2013-08-09 00:44:00,55.4,38.1,29.98,SW,225,1.2,0.0,52,0.00,CLR,,0.00,WeatherDisplay:10.37,2013-08-09 07:44:00,
2013-08-09 00:49:00,55.6,38.2,29.98,West,270,1.2,0.0,52,0.00,CLR,,0.00,WeatherDisplay:10.37,2013-08-09 07:49:00,
2013-08-09 00:54:00,55.6,38.2,29.98,West,270,1.2,0.0,52,0.00,CLR,,0.00,WeatherDisplay:10.37,2013-08-09 07:54:00,
2013-08-09 00:59:00,55.4,38.1,29.98,NW,315,1.2,0.0,52,0.00,CLR,,0.00,WeatherDisplay:10.37,2013-08-09 07:59:00,
2013-08-09 01:04:00,55.8,38.9,29.98,South,180,1.2,0.0,53,0.00,CLR,,0.00,WeatherDisplay:10.37,2013-08-09 08:04:00,
2013-08-09 01:09:00,55.8,38.9,29.98,West,270,1.2,0.0,53,0.00,CLR,,0.00,WeatherDisplay:10.37,2013-08-09 08:09:00,
2013-08-09 01:14:00,55.6,38.7,29.97,NE,45,1.2,1.2,53,0.00,CLR,,0.00,WeatherDisplay:10.37,2013-08-09 08:14:00,
2013-08-09 01:19:00,55.8,38.9,29.98,West,270,1.2,0.0,53,0.00,CLR,,0.00,WeatherDisplay:10.37,2013-08-09 08:19:00,
2013-08-09 01:24:00,55.6,38.7,29.98,NE,45,3.5,0.0,53,0.00,CLR,,0.00,WeatherDisplay:10.37,2013-08-09 08:24:00,
2013-08-09 01:29:00,55.6,39.2,29.97,SW,225,0.0,0.0,54,0.00,CLR,,0.00,WeatherDisplay:10.37,2013-08-09 08:29:00,
2013-08-09 01:34:00,55.8,39.4,29.97,West,270,1.2,0.0,54,0.00,CLR,,0.00,WeatherDisplay:10.37,2013-08-09 08:34:00,
2013-08-09 01:39:00,55.6,39.2,29.97,NW,315,3.5,0.0,54,0.00,CLR,,0.00,WeatherDisplay:10.37,2013-08-09 08:39:00,
2013-08-09 01:44:00,55.6,39.2,29.97,West,270,1.2,0.0,54,0.00,CLR,,0.00,WeatherDisplay:10.37,2013-08-09 08:44:00,
2013-08-09 01:49:00,55.6,39.7,29.96,West,270,1.2,1.6,55,0.00,CLR,,0.00,WeatherDisplay:10.37,2013-08-09 08:49:00,
2013-08-09 01:54:00,55.6,39.7,29.96,West,270,1.2,0.0,55,0.00,CLR,,0.00,WeatherDisplay:10.37,2013-08-09 08:54:00,
2013-08-09 01:59:00,55.6,39.7,29.95,SW,225,2.3,0.0,55,0.00,CLR,,0.00,WeatherDisplay:10.37,2013-08-09 08:59:00,
2013-08-09 02:04:00,55.8,39.8,29.95,West,270,1.2,0.0,55,0.00,CLR,,0.00,WeatherDisplay:10.37,2013-08-09 09:04:00,
2013-08-09 02:09:00,55.9,40.5,29.95,South,180,1.2,0.0,56,0.00,CLR,,0.00,WeatherDisplay:10.37,2013-08-09 09:09:00,
2013-08-09 02:14:00,56.1,40.6,29.95,South,180,1.2,0.0,56,0.00,CLR,,0.00,WeatherDisplay:10.37,2013-08-09 09:14:00,
2013-08-09 02:19:00,56.1,40.6,29.95,South,180,0.0,0.0,56,0.00,CLR,,0.00,WeatherDisplay:10.37,2013-08-09 09:19:00,
2013-08-09 02:24:00,56.1,40.6,29.95,West,270,0.0,0.0,56,0.00,CLR,,0.00,WeatherDisplay:10.37,2013-08-09 09:24:00,
2013-08-09 02:29:00,56.3,40.8,29.95,NE,45,1.2,0.0,56,0.00,CLR,,0.00,WeatherDisplay:10.37,2013-08-09 09:29:00,
2013-08-09 02:34:00,56.3,40.8,29.94,SW,225,1.2,0.0,56,0.00,CLR,,0.00,WeatherDisplay:10.37,2013-08-09 09:34:00,
2013-08-09 02:39:00,56.3,40.8,29.94,NW,315,1.2,0.0,56,0.00,CLR,,0.00,WeatherDisplay:10.37,2013-08-09 09:39:00,
2013-08-09 02:44:00,56.5,41.0,29.95,NW,315,1.2,0.0,56,0.00,CLR,,0.00,WeatherDisplay:10.37,2013-08-09 09:44:00,
2013-08-09 02:49:00,56.5,41.0,29.95,North,0,0.7,0.0,56,0.00,CLR,,0.00,WeatherDisplay:10.37,2013-08-09 09:49:00,
2013-08-09 02:54:00,56.5,41.0,29.95,West,270,1.2,0.0,56,0.00,CLR,,0.00,WeatherDisplay:10.37,2013-08-09 09:54:00,
2013-08-09 02:59:00,56.5,41.0,29.95,NW,315,1.2,1.2,56,0.00,CLR,,0.00,WeatherDisplay:10.37,2013-08-09 09:59:00,
2013-08-09 03:04:00,56.5,41.0,29.95,SW,225,1.2,0.0,56,0.00,CLR,,0.00,WeatherDisplay:10.37,2013-08-09 10:04:00,
2013-08-09 03:09:00,56.5,41.0,29.95,South,180,1.2,0.0,56,0.00,CLR,,0.00,WeatherDisplay:10.37,2013-08-09 10:09:00,
2013-08-09 03:14:00,56.7,41.1,29.95,SW,225,0.0,0.0,56,0.00,CLR,,0.00,WeatherDisplay:10.37,2013-08-09 10:14:00,
2013-08-09 03:19:00,56.7,41.1,29.95,SW,225,1.2,0.0,56,0.00,CLR,,0.00,WeatherDisplay:10.37,2013-08-09 10:19:00,
2013-08-09 03:24:00,56.7,41.1,29.95,West,270,1.2,0.0,56,0.00,CLR,,0.00,WeatherDisplay:10.37,2013-08-09 10:24:00,
2013-08-09 03:29:00,56.7,41.1,29.95,West,270,1.2,0.0,56,0.00,CLR,,0.00,WeatherDisplay:10.37,2013-08-09 10:29:00,
2013-08-09 03:34:00,56.5,41.0,29.95,NW,315,1.2,0.0,56,0.00,CLR,,0.00,WeatherDisplay:10.37,2013-08-09 10:34:00,
2013-08-09 03:39:00,56.5,41.0,29.94,NW,315,1.2,0.0,56,0.00,CLR,,0.00,WeatherDisplay:10.37,2013-08-09 10:39:00,
2013-08-09 03:44:00,56.5,41.0,29.94,West,270,1.2,0.0,56,0.00,CLR,,0.00,WeatherDisplay:10.37,2013-08-09 10:44:00,
2013-08-09 03:49:00,56.3,40.8,29.94,NW,315,1.2,0.0,56,0.00,CLR,,0.00,WeatherDisplay:10.37,2013-08-09 10:49:00,
2013-08-09 03:54:00,56.3,41.3,29.94,West,270,3.5,3.5,57,0.00,CLR,,0.00,WeatherDisplay:10.37,2013-08-09 10:54:00,
2013-08-09 03:59:00,56.3,41.3,29.94,NW,315,1.2,0.0,57,0.00,CLR,,0.00,WeatherDisplay:10.37,2013-08-09 10:59:00,
2013-08-09 04:04:00,56.3,41.3,29.94,West,270,1.2,0.0,57,0.00,CLR,,0.00,WeatherDisplay:10.37,2013-08-09 11:04:00,
2013-08-09 04:09:00,56.1,41.1,29.93,West,270,2.3,2.3,57,0.00,CLR,,0.00,WeatherDisplay:10.37,2013-08-09 11:09:00,
2013-08-09 04:14:00,56.1,41.1,29.93,West,270,1.2,0.0,57,0.00,CLR,,0.00,WeatherDisplay:10.37,2013-08-09 11:14:00,
2013-08-09 04:19:00,55.9,40.9,29.93,NW,315,2.3,2.3,57,0.00,CLR,,0.00,WeatherDisplay:10.37,2013-08-09 11:19:00,
2013-08-09 04:24:00,55.8,40.7,29.94,NW,315,3.5,3.5,57,0.00,CLR,,0.00,WeatherDisplay:10.37,2013-08-09 11:24:00,
2013-08-09 04:29:00,55.9,40.9,29.93,SW,225,1.2,0.0,57,0.00,CLR,,0.00,WeatherDisplay:10.37,2013-08-09 11:29:00,
2013-08-09 04:34:00,55.6,41.0,29.93,NW,315,4.6,4.6,58,0.00,CLR,,0.00,WeatherDisplay:10.37,2013-08-09 11:34:00,
2013-08-09 04:39:00,55.8,41.2,29.93,NW,315,2.3,2.3,58,0.00,CLR,,0.00,WeatherDisplay:10.37,2013-08-09 11:39:00,
2013-08-09 04:44:00,55.6,41.0,29.93,West,270,4.6,4.6,58,0.00,CLR,,0.00,WeatherDisplay:10.37,2013-08-09 11:44:00,
2013-08-09 04:49:00,55.4,40.9,29.93,SW,225,2.3,2.3,58,0.00,CLR,,0.00,WeatherDisplay:10.37,2013-08-09 11:49:00,
2013-08-09 04:54:00,55.4,40.9,29.93,West,270,3.5,3.5,58,0.00,CLR,,0.00,WeatherDisplay:10.37,2013-08-09 11:54:00,
2013-08-09 04:59:00,55.4,41.3,29.92,West,270,2.3,2.3,59,0.00,CLR,,0.00,WeatherDisplay:10.37,2013-08-09 11:59:00,
2013-08-09 05:04:00,55.4,41.3,29.92,West,270,2.3,0.0,59,0.00,CLR,,0.00,WeatherDisplay:10.37,2013-08-09 12:04:00,
2013-08-09 05:09:00,55.6,41.5,29.93,West,270,2.3,2.3,59,0.00,CLR,,0.00,WeatherDisplay:10.37,2013-08-09 12:09:00,
2013-08-09 05:14:00,55.6,41.5,29.92,NW,315,2.3,0.0,59,0.00,CLR,,0.00,WeatherDisplay:10.37,2013-08-09 12:14:00,
2013-08-09 05:19:00,55.4,41.3,29.92,NW,315,2.3,2.3,59,0.00,CLR,,0.00,WeatherDisplay:10.37,2013-08-09 12:19:00,
2013-08-09 05:24:00,55.6,41.5,29.92,North,0,1.2,0.0,59,0.00,CLR,,0.00,WeatherDisplay:10.37,2013-08-09 12:24:00,
2013-08-09 05:29:00,55.2,41.1,29.92,NE,45,2.3,0.0,59,0.00,CLR,,0.00,WeatherDisplay:10.37,2013-08-09 12:29:00,
2013-08-09 05:34:00,55.2,41.1,29.92,SW,225,1.2,0.0,59,0.00,CLR,,0.00,WeatherDisplay:10.37,2013-08-09 12:34:00,
2013-08-09 05:39:00,55.2,41.1,29.92,South,180,0.0,0.0,59,0.00,CLR,,0.00,WeatherDisplay:10.37,2013-08-09 12:39:00,
2013-08-09 05:44:00,55.4,41.3,29.92,NW,315,3.5,3.5,59,0.00,CLR,,0.00,WeatherDisplay:10.37,2013-08-09 12:44:00,
2013-08-09 05:49:00,55.2,41.1,29.91,West,270,3.5,0.0,59,0.00,CLR,,0.00,WeatherDisplay:10.37,2013-08-09 12:49:00,
2013-08-09 05:54:00,55.2,41.1,29.91,NW,315,1.2,1.2,59,0.00,CLR,,0.00,WeatherDisplay:10.37,2013-08-09 12:54:00,
2013-08-09 05:59:00,55.4,41.3,29.91,West,270,2.3,0.0,59,0.00,CLR,,0.00,WeatherDisplay:10.37,2013-08-09 12:59:00,
2013-08-09 06:04:00,55.0,41.0,29.92,NE,45,1.2,0.0,59,0.00,CLR,,0.00,WeatherDisplay:10.37,2013-08-09 13:04:00,
2013-08-09 06:09:00,55.0,41.0,29.92,South,180,1.2,0.0,59,0.00,CLR,,0.00,WeatherDisplay:10.37,2013-08-09 13:09:00,
2013-08-09 06:14:00,55.0,41.0,29.92,West,270,1.2,0.0,59,0.00,CLR,,0.00,WeatherDisplay:10.37,2013-08-09 13:14:00,
2013-08-09 06:19:00,55.0,41.4,29.92,West,270,1.6,0.0,60,0.00,CLR,,0.00,WeatherDisplay:10.37,2013-08-09 13:19:00,
2013-08-09 06:24:00,55.0,41.4,29.92,SW,225,1.2,0.0,60,0.00,CLR,,0.00,WeatherDisplay:10.37,2013-08-09 13:24:00,
2013-08-09 06:29:00,55.0,41.4,29.91,West,270,2.3,2.3,60,0.00,CLR,,0.00,WeatherDisplay:10.37,2013-08-09 13:29:00,
2013-08-09 06:34:00,55.0,41.4,29.91,NW,315,2.3,0.0,60,0.00,CLR,,0.00,WeatherDisplay:10.37,2013-08-09 13:34:00,
2013-08-09 06:39:00,55.0,41.4,29.92,NW,315,1.2,0.0,60,0.00,CLR,,0.00,WeatherDisplay:10.37,2013-08-09 13:39:00,
2013-08-09 06:44:00,55.0,41.4,29.92,West,270,1.2,0.0,60,0.00,CLR,,0.00,WeatherDisplay:10.37,2013-08-09 13:44:00,
2013-08-09 06:49:00,55.0,41.4,29.92,North,0,1.2,0.0,60,0.00,CLR,,0.00,WeatherDisplay:10.37,2013-08-09 13:49:00,
2013-08-09 06:54:00,55.0,41.4,29.92,NW,315,0.0,0.0,60,0.00,CLR,,0.00,WeatherDisplay:10.37,2013-08-09 13:54:00,
2013-08-09 06:59:00,55.2,41.6,29.92,West,270,1.2,0.0,60,0.00,CLR,,0.00,WeatherDisplay:10.37,2013-08-09 13:59:00,
2013-08-09 07:04:00,55.2,41.6,29.92,SW,225,2.3,0.0,60,0.00,CLR,,0.00,WeatherDisplay:10.37,2013-08-09 14:04:00,
2013-08-09 07:09:00,55.0,41.4,29.92,West,270,2.3,2.3,60,0.00,CLR,,0.00,WeatherDisplay:10.37,2013-08-09 14:09:00,
2013-08-09 07:14:00,55.0,41.4,29.92,West,270,1.2,0.0,60,0.00,CLR,,0.00,WeatherDisplay:10.37,2013-08-09 14:14:00,
2013-08-09 07:19:00,55.2,41.6,29.92,West,270,1.2,0.0,60,0.00,CLR,,0.00,WeatherDisplay:10.37,2013-08-09 14:19:00,
2013-08-09 07:24:00,55.4,41.7,29.92,West,270,1.2,0.0,60,0.00,CLR,,0.00,WeatherDisplay:10.37,2013-08-09 14:24:00,
2013-08-09 07:29:00,55.6,41.9,29.92,West,270,1.2,0.0,60,0.00,CLR,,0.00,WeatherDisplay:10.37,2013-08-09 14:29:00,
2013-08-09 07:34:00,55.6,41.9,29.92,West,270,2.3,0.0,60,0.00,CLR,,0.00,WeatherDisplay:10.37,2013-08-09 14:34:00,
2013-08-09 07:39:00,55.8,42.1,29.93,West,270,1.2,0.0,60,0.00,CLR,,0.00,WeatherDisplay:10.37,2013-08-09 14:39:00,
2013-08-09 07:45:00,56.1,42.4,29.93,SW,225,1.2,0.0,60,0.00,CLR,,0.00,WeatherDisplay:10.37,2013-08-09 14:45:00,
2013-08-09 07:50:00,56.1,42.0,29.93,SW,225,1.2,0.0,59,0.00,CLR,,0.00,WeatherDisplay:10.37,2013-08-09 14:50:00,
2013-08-09 07:55:00,56.1,41.5,29.93,South,180,1.2,0.0,58,0.00,CLR,,0.00,WeatherDisplay:10.37,2013-08-09 14:55:00,
2013-08-09 08:00:00,56.3,41.7,29.93,West,270,0.0,0.0,58,0.00,CLR,,0.00,WeatherDisplay:10.37,2013-08-09 15:00:00,
2013-08-09 08:05:00,56.5,41.4,29.93,NW,315,2.3,2.3,57,0.00,CLR,,0.00,WeatherDisplay:10.37,2013-08-09 15:05:00,
2013-08-09 08:10:00,56.7,41.6,29.93,NW,315,1.2,0.0,57,0.00,CLR,,0.00,WeatherDisplay:10.37,2013-08-09 15:10:00,
2013-08-09 08:15:00,56.8,41.8,29.93,NE,45,1.2,1.2,57,0.00,CLR,,0.00,WeatherDisplay:10.37,2013-08-09 15:15:00,
2013-08-09 08:20:00,57.0,41.9,29.93,West,270,1.2,1.2,57,0.00,CLR,,0.00,WeatherDisplay:10.37,2013-08-09 15:20:00,
2013-08-09 08:25:00,57.0,41.5,29.93,North,0,1.2,2.2,56,0.00,CLR,,0.00,WeatherDisplay:10.37,2013-08-09 15:25:00,
2013-08-09 08:30:00,57.2,41.6,29.93,North,0,4.6,0.0,56,0.00,CLR,,0.00,WeatherDisplay:10.37,2013-08-09 15:30:00,
2013-08-09 08:36:00,57.7,42.1,29.93,North,0,1.2,0.0,56,0.00,CLR,,0.00,WeatherDisplay:10.37,2013-08-09 15:36:00,
2013-08-09 08:41:00,58.5,42.3,29.92,North,0,1.2,0.0,55,0.00,CLR,,0.00,WeatherDisplay:10.37,2013-08-09 15:41:00,
2013-08-09 08:46:00,58.8,42.2,29.93,West,270,1.2,0.0,54,0.00,CLR,,0.00,WeatherDisplay:10.37,2013-08-09 15:46:00,
2013-08-09 08:51:00,59.4,41.7,29.93,SE,135,2.3,0.0,52,0.00,CLR,,0.00,WeatherDisplay:10.37,2013-08-09 15:51:00,
2013-08-09 08:56:00,59.7,40.0,29.93,North,0,4.6,4.6,48,0.00,CLR,,0.00,WeatherDisplay:10.37,2013-08-09 15:56:00,
2013-08-09 09:01:00,60.1,38.1,29.93,East,90,3.5,3.5,44,0.00,CLR,,0.00,WeatherDisplay:10.37,2013-08-09 16:01:00,
2013-08-09 09:06:00,60.1,36.9,29.93,NE,45,2.3,2.3,42,0.00,CLR,,0.00,WeatherDisplay:10.37,2013-08-09 16:06:00,
2013-08-09 09:11:00,60.1,34.4,29.92,West,270,4.6,4.6,38,0.00,CLR,,0.00,WeatherDisplay:10.37,2013-08-09 16:11:00,
2013-08-09 09:16:00,59.9,32.9,29.92,NW,315,4.6,4.6,36,0.00,CLR,,0.00,WeatherDisplay:10.37,2013-08-09 16:16:00,
2013-08-09 09:21:00,59.9,32.2,29.92,NW,315,3.5,3.5,35,0.00,CLR,,0.00,WeatherDisplay:10.37,2013-08-09 16:21:00,
2013-08-09 09:26:00,59.9,30.7,29.92,NW,315,5.8,5.8,33,0.00,CLR,,0.00,WeatherDisplay:10.37,2013-08-09 16:26:00,
2013-08-09 09:31:00,59.7,29.8,29.91,North,0,3.5,0.0,32,0.00,CLR,,0.00,WeatherDisplay:10.37,2013-08-09 16:31:00,
2013-08-09 09:36:00,59.7,29.0,29.92,West,270,4.6,4.6,31,0.00,CLR,,0.00,WeatherDisplay:10.37,2013-08-09 16:36:00,
2013-08-09 09:41:00,59.9,29.2,29.92,NW,315,3.5,0.0,31,0.00,CLR,,0.00,WeatherDisplay:10.37,2013-08-09 16:41:00,
2013-08-09 09:46:00,60.4,29.6,29.91,NE,45,2.3,0.0,31,0.00,CLR,,0.00,WeatherDisplay:10.37,2013-08-09 16:46:00,
2013-08-09 09:51:00,60.6,28.2,29.91,SW,225,3.5,3.5,29,0.00,CLR,,0.00,WeatherDisplay:10.37,2013-08-09 16:51:00,
2013-08-09 09:56:00,60.8,25.7,29.92,West,270,3.5,3.5,26,0.00,CLR,,0.00,WeatherDisplay:10.37,2013-08-09 16:56:00,
2013-08-09 10:01:00,60.8,22.7,29.91,North,0,4.6,4.6,23,0.00,CLR,,0.00,WeatherDisplay:10.37,2013-08-09 17:01:00,
2013-08-09 10:06:00,61.0,23.9,29.91,North,0,3.5,0.0,24,0.00,CLR,,0.00,WeatherDisplay:10.37,2013-08-09 17:06:00,
2013-08-09 10:11:00,61.2,20.9,29.91,NW,315,3.5,3.5,21,0.00,CLR,,0.00,WeatherDisplay:10.37,2013-08-09 17:11:00,
2013-08-09 10:16:00,61.2,19.7,29.91,NW,315,3.5,3.5,20,0.00,CLR,,0.00,WeatherDisplay:10.37,2013-08-09 17:16:00,
2013-08-09 10:21:00,61.5,16.2,29.91,West,270,3.5,3.5,17,0.00,CLR,,0.00,WeatherDisplay:10.37,2013-08-09 17:21:00,
2013-08-09 10:26:00,61.2,13.1,29.91,NW,315,6.9,6.9,15,0.00,CLR,,0.00,WeatherDisplay:10.37,2013-08-09 17:26:00,
2013-08-09 10:31:00,60.6,12.6,29.91,SW,225,5.8,5.8,15,0.00,CLR,,0.00,WeatherDisplay:10.37,2013-08-09 17:31:00,
2013-08-09 10:36:00,60.6,16.8,29.91,SW,225,2.3,2.3,18,0.00,CLR,,0.00,WeatherDisplay:10.37,2013-08-09 17:36:00,
2013-08-09 10:41:00,61.3,18.7,29.91,NW,315,2.3,2.3,19,0.00,CLR,,0.00,WeatherDisplay:10.37,2013-08-09 17:41:00,
2013-08-09 10:46:00,62.4,18.3,29.91,SE,135,1.2,0.0,18,0.00,CLR,,0.00,WeatherDisplay:10.37,2013-08-09 17:46:00,
2013-08-09 10:51:00,63.3,9.8,29.91,NW,315,3.5,3.5,12,0.00,CLR,,0.00,WeatherDisplay:10.37,2013-08-09 17:51:00,
2013-08-09 10:56:00,63.9,8.2,29.91,West,270,4.6,4.6,11,0.00,CLR,,0.00,WeatherDisplay:10.37,2013-08-09 17:56:00,
2013-08-09 11:01:00,63.9,8.2,29.91,NW,315,3.5,3.5,11,0.00,CLR,,0.00,WeatherDisplay:10.37,2013-08-09 18:01:00,
2013-08-09 11:06:00,64.6,8.8,29.91,NE,45,1.2,1.2,11,0.00,CLR,,0.00,WeatherDisplay:10.37,2013-08-09 18:06:00,
2013-08-09 11:11:00,64.8,8.9,29.91,SW,225,3.5,3.5,11,0.00,CLR,,0.00,WeatherDisplay:10.37,2013-08-09 18:11:00,
2013-08-09 11:16:00,64.4,8.7,29.91,SW,225,2.3,2.3,11,0.00,CLR,,0.00,WeatherDisplay:10.37,2013-08-09 18:16:00,
2013-08-09 11:21:00,65.5,9.5,29.91,SW,225,3.5,3.5,11,0.00,CLR,,0.00,WeatherDisplay:10.37,2013-08-09 18:21:00,
2013-08-09 11:26:00,69.1,12.3,29.90,SW,225,5.8,5.8,11,0.00,CLR,,0.00,WeatherDisplay:10.37,2013-08-09 18:26:00,
2013-08-09 11:31:00,71.1,13.8,29.91,NW,315,4.6,4.6,11,0.00,CLR,,0.00,WeatherDisplay:10.37,2013-08-09 18:31:00,
2013-08-09 11:36:00,72.1,14.7,29.90,SW,225,1.2,2.2,11,0.00,CLR,,0.00,WeatherDisplay:10.37,2013-08-09 18:36:00,
2013-08-09 11:41:00,72.1,14.7,29.90,West,270,5.8,5.8,11,0.00,CLR,,0.00,WeatherDisplay:10.37,2013-08-09 18:41:00,
2013-08-09 11:46:00,73.0,15.4,29.90,SW,225,2.3,2.3,11,0.00,CLR,,0.00,WeatherDisplay:10.37,2013-08-09 18:46:00,
2013-08-09 11:51:00,74.1,16.2,29.90,West,270,4.6,4.6,11,0.00,CLR,,0.00,WeatherDisplay:10.37,2013-08-09 18:51:00,
2013-08-09 11:56:00,75.6,17.3,29.90,NW,315,3.5,3.5,11,0.00,CLR,,0.00,WeatherDisplay:10.37,2013-08-09 18:56:00,
2013-08-09 12:01:00,75.6,17.3,29.90,NW,315,8.1,8.1,11,0.00,CLR,,0.00,WeatherDisplay:10.37,2013-08-09 19:01:00,
2013-08-09 12:06:00,74.1,16.2,29.90,SW,225,6.9,6.9,11,0.00,CLR,,0.00,WeatherDisplay:10.37,2013-08-09 19:06:00,
2013-08-09 12:11:00,73.9,16.1,29.89,West,270,6.0,6.0,11,0.00,CLR,,0.00,WeatherDisplay:10.37,2013-08-09 19:11:00,
2013-08-09 12:16:00,73.9,16.1,29.90,SSW,202,8.1,8.1,11,0.00,CLR,,0.00,WeatherDisplay:10.37,2013-08-09 19:16:00,
2013-08-09 12:21:00,72.9,15.2,29.90,West,270,6.9,6.9,11,0.00,CLR,,0.00,WeatherDisplay:10.37,2013-08-09 19:21:00,
2013-08-09 12:26:00,73.4,15.6,29.89,West,270,4.6,4.6,11,0.00,CLR,,0.00,WeatherDisplay:10.37,2013-08-09 19:26:00,
2013-08-09 12:31:00,73.9,16.1,29.89,SW,225,11.5,11.5,11,0.00,CLR,,0.00,WeatherDisplay:10.37,2013-08-09 19:31:00,
2013-08-09 12:36:00,72.5,14.9,29.90,West,270,6.9,7.6,11,0.00,CLR,,0.00,WeatherDisplay:10.37,2013-08-09 19:36:00,
2013-08-09 12:41:00,72.9,15.2,29.90,NW,315,6.9,6.9,11,0.00,CLR,,0.00,WeatherDisplay:10.37,2013-08-09 19:41:00,
2013-08-09 12:46:00,73.8,15.9,29.90,NW,315,3.5,3.5,11,0.00,CLR,,0.00,WeatherDisplay:10.37,2013-08-09 19:46:00,
2013-08-09 12:51:00,74.3,16.3,29.89,NW,315,8.1,8.1,11,0.00,CLR,,0.00,WeatherDisplay:10.37,2013-08-09 19:51:00,
2013-08-09 12:56:00,72.7,15.1,29.89,NW,315,8.1,8.1,11,0.00,CLR,,0.00,WeatherDisplay:10.37,2013-08-09 19:56:00,
2013-08-09 13:01:00,73.4,15.6,29.89,West,270,6.9,6.9,11,0.00,CLR,,0.00,WeatherDisplay:10.37,2013-08-09 20:01:00,
2013-08-09 13:06:00,72.9,15.2,29.88,NW,315,8.1,8.1,11,0.00,CLR,,0.00,WeatherDisplay:10.37,2013-08-09 20:06:00,
2013-08-09 13:11:00,72.3,14.8,29.88,West,270,8.1,8.1,11,0.00,CLR,,0.00,WeatherDisplay:10.37,2013-08-09 20:11:00,
2013-08-09 13:16:00,72.5,14.9,29.88,West,270,6.9,6.9,11,0.00,CLR,,0.00,WeatherDisplay:10.37,2013-08-09 20:16:00,
2013-08-09 13:21:00,73.4,15.6,29.88,West,270,5.8,5.8,11,0.00,CLR,,0.00,WeatherDisplay:10.37,2013-08-09 20:21:00,
2013-08-09 13:26:00,74.3,16.3,29.88,West,270,9.2,9.2,11,0.00,CLR,,0.00,WeatherDisplay:10.37,2013-08-09 20:26:00,
2013-08-09 13:31:00,73.8,15.9,29.88,SW,225,8.1,8.1,11,0.00,CLR,,0.00,WeatherDisplay:10.37,2013-08-09 20:31:00,
2013-08-09 13:36:00,74.1,16.2,29.88,NW,315,8.1,8.1,11,0.00,CLR,,0.00,WeatherDisplay:10.37,2013-08-09 20:36:00,
2013-08-09 13:41:00,73.6,15.8,29.88,NW,315,10.4,10.4,11,0.00,CLR,,0.00,WeatherDisplay:10.37,2013-08-09 20:41:00,
2013-08-09 13:46:00,74.3,16.3,29.88,NW,315,6.9,6.9,11,0.00,CLR,,0.00,WeatherDisplay:10.37,2013-08-09 20:46:00,
2013-08-09 13:51:00,75.0,16.9,29.88,NE,45,8.1,0.0,11,0.00,CLR,,0.00,WeatherDisplay:10.37,2013-08-09 20:51:00,
2013-08-09 13:56:00,74.8,16.8,29.88,NW,315,8.1,8.1,11,0.00,CLR,,0.00,WeatherDisplay:10.37,2013-08-09 20:56:00,
2013-08-09 14:01:00,75.0,16.9,29.88,NE,45,3.5,3.5,11,0.00,CLR,,0.00,WeatherDisplay:10.37,2013-08-09 21:01:00,
2013-08-09 14:06:00,75.9,17.6,29.88,West,270,3.5,3.5,11,0.00,CLR,,0.00,WeatherDisplay:10.37,2013-08-09 21:06:00,
2013-08-09 14:11:00,75.6,17.3,29.88,NE,45,8.1,8.1,11,0.00,CLR,,0.00,WeatherDisplay:10.37,2013-08-09 21:11:00,
2013-08-09 14:16:00,74.8,16.8,29.88,East,90,5.8,5.8,11,0.00,CLR,,0.00,WeatherDisplay:10.37,2013-08-09 21:16:00,
2013-08-09 14:21:00,74.1,16.2,29.88,NW,315,12.7,12.7,11,0.00,CLR,,0.00,WeatherDisplay:10.37,2013-08-09 21:21:00,
2013-08-09 14:26:00,73.4,15.6,29.88,SE,135,10.4,10.4,11,0.00,CLR,,0.00,WeatherDisplay:10.37,2013-08-09 21:26:00,
2013-08-09 14:31:00,70.7,13.5,29.88,West,270,12.7,0.0,11,0.00,CLR,,0.00,WeatherDisplay:10.37,2013-08-09 21:31:00,
2013-08-09 14:36:00,69.3,12.4,29.88,NW,315,8.1,8.1,11,0.00,CLR,,0.00,WeatherDisplay:10.37,2013-08-09 21:36:00,
2013-08-09 14:41:00,68.5,11.9,29.88,West,270,12.7,12.7,11,0.00,CLR,,0.00,WeatherDisplay:10.37,2013-08-09 21:41:00,
2013-08-09 14:46:00,68.2,11.6,29.89,East,90,12.7,12.7,11,0.00,CLR,,0.00,WeatherDisplay:10.37,2013-08-09 21:46:00,
2013-08-09 14:51:00,68.7,12.0,29.88,NE,45,9.2,9.2,11,0.00,CLR,,0.00,WeatherDisplay:10.37,2013-08-09 21:51:00,
2013-08-09 14:56:00,70.5,13.4,29.88,NW,315,2.3,2.3,11,0.00,CLR,,0.00,WeatherDisplay:10.37,2013-08-09 21:56:00,
2013-08-09 15:01:00,73.6,15.8,29.88,NE,45,8.1,8.1,11,0.00,CLR,,0.00,WeatherDisplay:10.37,2013-08-09 22:01:00,
2013-08-09 15:06:00,73.8,15.9,29.88,NE,45,11.5,11.5,11,0.00,CLR,,0.00,WeatherDisplay:10.37,2013-08-09 22:06:00,
2013-08-09 15:11:00,73.9,16.1,29.88,West,270,9.2,9.2,11,0.00,CLR,,0.00,WeatherDisplay:10.37,2013-08-09 22:11:00,
2013-08-09 15:16:00,73.2,15.5,29.88,NW,315,12.7,12.7,11,0.00,CLR,,0.00,WeatherDisplay:10.37,2013-08-09 22:16:00,
2013-08-09 15:21:00,74.3,16.3,29.88,NE,45,4.6,4.6,11,0.00,CLR,,0.00,WeatherDisplay:10.37,2013-08-09 22:21:00,
2013-08-09 15:26:00,76.1,17.7,29.89,WNW,292,3.5,3.5,11,0.00,CLR,,0.00,WeatherDisplay:10.37,2013-08-09 22:26:00,
2013-08-09 15:31:00,76.8,18.3,29.89,NW,315,8.1,8.1,11,0.00,CLR,,0.00,WeatherDisplay:10.37,2013-08-09 22:31:00,
2013-08-09 15:36:00,74.5,16.5,29.89,North,0,15.0,15.0,11,0.00,CLR,,0.00,WeatherDisplay:10.37,2013-08-09 22:36:00,
2013-08-09 15:41:00,72.3,14.8,29.89,South,180,6.9,6.9,11,0.00,CLR,,0.00,WeatherDisplay:10.37,2013-08-09 22:41:00,
2013-08-09 15:46:00,71.8,14.4,29.89,NW,315,9.2,9.2,11,0.00,CLR,,0.00,WeatherDisplay:10.37,2013-08-09 22:46:00,
2013-08-09 15:51:00,70.7,13.5,29.89,East,90,17.3,17.3,11,0.00,CLR,,0.00,WeatherDisplay:10.37,2013-08-09 22:51:00,
2013-08-09 15:56:00,70.2,13.1,29.89,NW,315,6.9,6.9,11,0.00,CLR,,0.00,WeatherDisplay:10.37,2013-08-09 22:56:00,
2013-08-09 16:01:00,69.8,12.9,29.89,NW,315,8.1,8.1,11,0.00,CLR,,0.00,WeatherDisplay:10.37,2013-08-09 23:01:00,
2013-08-09 16:06:00,69.3,12.4,29.89,SW,225,4.6,4.6,11,0.00,CLR,,0.00,WeatherDisplay:10.37,2013-08-09 23:06:00,
2013-08-09 16:11:00,69.1,12.3,29.88,North,0,15.0,15.0,11,0.00,CLR,,0.00,WeatherDisplay:10.37,2013-08-09 23:11:00,
2013-08-09 16:16:00,69.1,12.3,29.88,NW,315,10.4,10.4,11,0.00,CLR,,0.00,WeatherDisplay:10.37,2013-08-09 23:16:00,
2013-08-09 16:21:00,69.8,12.9,29.88,North,0,9.2,9.2,11,0.00,CLR,,0.00,WeatherDisplay:10.37,2013-08-09 23:21:00,
2013-08-09 16:26:00,69.8,12.9,29.88,NE,45,13.8,13.8,11,0.00,CLR,,0.00,WeatherDisplay:10.37,2013-08-09 23:26:00,
2013-08-09 16:31:00,68.9,12.2,29.87,SW,225,15.0,15.0,11,0.00,CLR,,0.00,WeatherDisplay:10.37,2013-08-09 23:31:00,
2013-08-09 16:35:00,68.4,11.7,29.87,NE,45,15.0,15.0,11,0.00,CLR,,0.00,WeatherDisplay:10.37,2013-08-09 23:35:00,
2013-08-09 16:40:00,67.6,11.2,29.87,South,180,9.2,9.2,11,0.00,CLR,,0.00,WeatherDisplay:10.37,2013-08-09 23:40:00,
2013-08-09 16:45:00,67.1,10.8,29.87,South,180,6.9,6.9,11,0.00,CLR,,0.00,WeatherDisplay:10.37,2013-08-09 23:45:00,
2013-08-09 16:50:00,66.2,10.1,29.87,North,0,12.7,12.7,11,0.00,CLR,,0.00,WeatherDisplay:10.37,2013-08-09 23:50:00,
2013-08-09 16:55:00,65.8,9.8,29.88,SE,135,10.4,10.4,11,0.00,CLR,,0.00,WeatherDisplay:10.37,2013-08-09 23:55:00,
2013-08-09 17:00:00,65.5,9.5,29.87,NE,45,8.1,8.1,11,0.00,CLR,,0.00,WeatherDisplay:10.37,2013-08-10 00:00:00,
2013-08-09 17:05:00,65.5,9.5,29.87,SW,225,5.8,5.8,11,0.00,CLR,,0.00,WeatherDisplay:10.37,2013-08-10 00:05:00,
2013-08-09 17:10:00,66.2,10.1,29.88,South,180,5.8,5.8,11,0.00,CLR,,0.00,WeatherDisplay:10.37,2013-08-10 00:10:00,
2013-08-09 17:15:00,67.1,10.8,29.88,North,0,5.8,5.8,11,0.00,CLR,,0.00,WeatherDisplay:10.37,2013-08-10 00:15:00,
2013-08-09 17:20:00,67.5,11.0,29.88,NE,45,5.8,5.8,11,0.00,CLR,,0.00,WeatherDisplay:10.37,2013-08-10 00:20:00,
2013-08-09 17:25:00,66.9,10.6,29.88,NW,315,5.8,5.8,11,0.00,CLR,,0.00,WeatherDisplay:10.37,2013-08-10 00:25:00,
2013-08-09 17:30:00,66.6,10.3,29.88,SW,225,5.8,5.8,11,0.00,CLR,,0.00,WeatherDisplay:10.37,2013-08-10 00:30:00,
2013-08-09 17:35:00,65.8,9.8,29.89,NE,45,3.5,3.5,11,0.00,CLR,,0.00,WeatherDisplay:10.37,2013-08-10 00:35:00,
2013-08-09 17:40:00,65.1,9.2,29.90,West,270,8.1,8.1,11,0.00,CLR,,0.00,WeatherDisplay:10.37,2013-08-10 00:40:00,
2013-08-09 17:45:00,64.6,8.8,29.91,NW,315,3.5,3.5,11,0.00,CLR,,0.00,WeatherDisplay:10.37,2013-08-10 00:45:00,
2013-08-09 17:50:00,64.2,8.5,29.91,West,270,3.5,0.0,11,0.00,CLR,,0.00,WeatherDisplay:10.37,2013-08-10 00:50:00,
2013-08-09 17:55:00,64.2,8.5,29.91,NW,315,5.8,5.8,11,0.00,CLR,,0.00,WeatherDisplay:10.37,2013-08-10 00:55:00,
2013-08-09 18:00:00,64.4,8.7,29.91,SW,225,6.9,6.9,11,0.00,CLR,,0.00,WeatherDisplay:10.37,2013-08-10 01:00:00,
2013-08-09 18:05:00,64.0,8.4,29.91,SW,225,3.5,3.5,11,0.00,CLR,,0.00,WeatherDisplay:10.37,2013-08-10 01:05:00,
2013-08-09 18:11:00,63.7,8.1,29.91,West,270,3.5,3.5,11,0.00,CLR,,0.00,WeatherDisplay:10.37,2013-08-10 01:11:00,
2013-08-09 18:16:00,63.1,7.7,29.91,NW,315,4.6,4.6,11,0.00,CLR,,0.00,WeatherDisplay:10.37,2013-08-10 01:16:00,
2013-08-09 18:21:00,62.6,7.3,29.91,South,180,4.6,4.6,11,0.00,CLR,,0.00,WeatherDisplay:10.37,2013-08-10 01:21:00,
2013-08-09 18:26:00,62.4,7.1,29.91,SW,225,5.8,5.8,11,0.00,CLR,,0.00,WeatherDisplay:10.37,2013-08-10 01:26:00,
2013-08-09 18:31:00,61.9,8.6,29.91,South,180,4.6,4.6,12,0.00,CLR,,0.00,WeatherDisplay:10.37,2013-08-10 01:31:00,
2013-08-09 18:36:00,61.7,15.0,29.92,SW,225,10.4,10.4,16,0.00,CLR,,0.00,WeatherDisplay:10.37,2013-08-10 01:36:00,
2013-08-09 18:41:00,61.3,18.7,29.92,SW,225,8.1,8.1,19,0.00,CLR,,0.00,WeatherDisplay:10.37,2013-08-10 01:41:00,
2013-08-09 18:46:00,61.0,20.7,29.93,SW,225,8.1,8.1,21,0.00,CLR,,0.00,WeatherDisplay:10.37,2013-08-10 01:46:00,
2013-08-09 18:51:00,60.6,23.6,29.93,NW,315,3.5,3.5,24,0.00,CLR,,0.00,WeatherDisplay:10.37,2013-08-10 01:51:00,
2013-08-09 18:56:00,60.8,24.7,29.93,SW,225,4.6,4.6,25,0.00,CLR,,0.00,WeatherDisplay:10.37,2013-08-10 01:56:00,
2013-08-09 19:01:00,60.8,24.7,29.93,North,0,3.5,3.5,25,0.00,CLR,,0.00,WeatherDisplay:10.37,2013-08-10 02:01:00,
2013-08-09 19:06:00,60.6,24.6,29.92,NE,45,3.5,3.5,25,0.00,CLR,,0.00,WeatherDisplay:10.37,2013-08-10 02:06:00,
2013-08-09 19:11:00,60.6,25.5,29.92,SSE,158,3.5,3.5,26,0.00,CLR,,0.00,WeatherDisplay:10.37,2013-08-10 02:11:00,
2013-08-09 19:16:00,60.6,28.2,29.94,South,180,5.8,5.8,29,0.00,CLR,,0.00,WeatherDisplay:10.37,2013-08-10 02:16:00,
2013-08-09 19:21:00,60.6,28.2,29.94,NW,315,2.3,0.0,29,0.00,CLR,,0.00,WeatherDisplay:10.37,2013-08-10 02:21:00,
2013-08-09 19:26:00,60.6,29.0,29.93,SW,225,2.3,0.0,30,0.00,CLR,,0.00,WeatherDisplay:10.37,2013-08-10 02:26:00,
2013-08-09 19:31:00,61.0,30.1,29.93,SW,225,1.2,0.0,31,0.00,CLR,,0.00,WeatherDisplay:10.37,2013-08-10 02:31:00,
2013-08-09 19:36:00,60.8,29.9,29.93,SE,135,1.2,0.0,31,0.00,CLR,,0.00,WeatherDisplay:10.37,2013-08-10 02:36:00,
2013-08-09 19:41:00,61.0,30.9,29.93,North,0,1.2,0.0,32,0.00,CLR,,0.00,WeatherDisplay:10.37,2013-08-10 02:41:00,
2013-08-09 19:46:00,60.4,31.9,29.93,NW,315,1.2,0.0,34,0.00,CLR,,0.00,WeatherDisplay:10.37,2013-08-10 02:46:00,
2013-08-09 19:51:00,60.3,33.2,29.93,West,270,1.2,0.0,36,0.00,CLR,,0.00,WeatherDisplay:10.37,2013-08-10 02:51:00,
2013-08-09 19:56:00,60.1,34.4,29.93,South,180,1.2,0.0,38,0.00,CLR,,0.00,WeatherDisplay:10.37,2013-08-10 02:56:00,
2013-08-09 20:01:00,59.9,35.5,29.93,North,0,2.3,0.0,40,0.00,CLR,,0.00,WeatherDisplay:10.37,2013-08-10 03:01:00,
2013-08-09 20:06:00,59.9,36.1,29.93,SW,225,1.2,0.0,41,0.00,CLR,,0.00,WeatherDisplay:10.37,2013-08-10 03:06:00,
2013-08-09 20:11:00,59.5,37.6,29.91,NW,315,6.9,6.9,44,0.00,CLR,,0.00,WeatherDisplay:10.37,2013-08-10 03:11:00,
2013-08-09 20:16:00,59.5,38.7,29.91,NW,315,3.5,3.5,46,0.00,CLR,,0.00,WeatherDisplay:10.37,2013-08-10 03:16:00,
2013-08-09 20:21:00,59.5,39.3,29.91,NW,315,3.5,3.5,47,0.00,CLR,,0.00,WeatherDisplay:10.37,2013-08-10 03:21:00,
2013-08-09 20:26:00,59.5,39.8,29.90,NW,315,5.8,5.8,48,0.00,CLR,,0.00,WeatherDisplay:10.37,2013-08-10 03:26:00,
2013-08-09 20:31:00,59.4,40.7,29.91,East,90,2.3,2.3,50,0.00,CLR,,0.00,WeatherDisplay:10.37,2013-08-10 03:31:00,
2013-08-09 20:36:00,59.5,41.4,29.91,East,90,1.2,1.2,51,0.00,CLR,,0.00,WeatherDisplay:10.37,2013-08-10 03:36:00,
2013-08-09 20:41:00,59.4,41.2,29.91,NE,45,2.3,0.0,51,0.00,CLR,,0.00,WeatherDisplay:10.37,2013-08-10 03:41:00,
2013-08-09 20:46:00,59.4,41.7,29.91,NE,45,1.2,1.2,52,0.00,CLR,,0.00,WeatherDisplay:10.37,2013-08-10 03:46:00,
2013-08-09 20:51:00,59.4,42.2,29.91,NE,45,2.3,2.3,53,0.00,CLR,,0.00,WeatherDisplay:10.37,2013-08-10 03:51:00,
2013-08-09 20:56:00,59.2,42.0,29.91,SW,225,3.5,3.5,53,0.00,CLR,,0.00,WeatherDisplay:10.37,2013-08-10 03:56:00,
2013-08-09 21:01:00,59.2,42.5,29.91,SE,135,1.2,0.0,54,0.00,CLR,,0.00,WeatherDisplay:10.37,2013-08-10 04:01:00,
2013-08-09 21:02:00,59.0,42.4,29.91,South,180,1.2,1.2,54,0.00,CLR,,0.00,WeatherDisplay:10.37,2013-08-10 04:02:00,
2013-08-09 21:03:00,59.2,42.5,29.92,South,180,2.3,2.3,54,0.00,CLR,,0.00,WeatherDisplay:10.37,2013-08-10 04:03:00,
2013-08-09 21:06:00,59.0,42.4,29.91,South,180,1.2,1.2,54,0.00,CLR,,0.00,WeatherDisplay:10.37,2013-08-10 04:06:00,
2013-08-09 21:11:00,59.0,42.8,29.91,SW,225,4.6,4.6,55,0.00,CLR,,0.00,WeatherDisplay:10.37,2013-08-10 04:11:00,
2013-08-09 21:16:00,59.0,43.3,29.93,South,180,3.5,0.0,56,0.00,CLR,,0.00,WeatherDisplay:10.37,2013-08-10 04:16:00,
2013-08-09 21:21:00,58.8,43.1,29.93,West,270,1.2,0.0,56,0.00,CLR,,0.00,WeatherDisplay:10.37,2013-08-10 04:21:00,
2013-08-09 21:26:00,59.0,43.8,29.94,SE,135,2.3,0.0,57,0.00,CLR,,0.00,WeatherDisplay:10.37,2013-08-10 04:26:00,
2013-08-09 21:31:00,59.0,43.8,29.94,SW,225,1.2,0.0,57,0.00,CLR,,0.00,WeatherDisplay:10.37,2013-08-10 04:31:00,
2013-08-09 21:36:00,59.0,44.2,29.94,SW,225,1.2,0.0,58,0.00,CLR,,0.00,WeatherDisplay:10.37,2013-08-10 04:36:00,
2013-08-09 21:41:00,59.0,44.2,29.94,SSE,158,1.2,0.0,58,0.00,CLR,,0.00,WeatherDisplay:10.37,2013-08-10 04:41:00,
2013-08-09 21:46:00,59.0,44.7,29.94,SW,225,3.5,3.5,59,0.00,CLR,,0.00,WeatherDisplay:10.37,2013-08-10 04:46:00,
2013-08-09 21:51:00,59.0,44.7,29.93,SW,225,1.2,0.0,59,0.00,CLR,,0.00,WeatherDisplay:10.37,2013-08-10 04:51:00,
2013-08-09 21:56:00,59.0,44.7,29.93,NW,315,3.5,3.5,59,0.00,CLR,,0.00,WeatherDisplay:10.37,2013-08-10 04:56:00,
2013-08-09 22:01:00,58.6,44.3,29.93,West,270,3.5,3.5,59,0.00,CLR,,0.00,WeatherDisplay:10.37,2013-08-10 05:01:00,
2013-08-09 22:06:00,58.5,44.2,29.93,SW,225,1.2,1.2,59,0.00,CLR,,0.00,WeatherDisplay:10.37,2013-08-10 05:06:00,
2013-08-09 22:11:00,58.3,44.0,29.93,SW,225,1.2,0.0,59,0.00,CLR,,0.00,WeatherDisplay:10.37,2013-08-10 05:11:00,
2013-08-09 22:16:00,58.1,43.8,29.93,SW,225,1.2,0.0,59,0.00,CLR,,0.00,WeatherDisplay:10.37,2013-08-10 05:16:00,
2013-08-09 22:21:00,57.7,43.5,29.93,SW,225,3.5,3.5,59,0.00,CLR,,0.00,WeatherDisplay:10.37,2013-08-10 05:21:00,
2013-08-09 22:26:00,57.6,43.3,29.93,SW,225,2.3,0.0,59,0.00,CLR,,0.00,WeatherDisplay:10.37,2013-08-10 05:26:00,
2013-08-09 22:31:00,57.2,43.0,29.93,West,270,1.2,0.0,59,0.00,CLR,,0.00,WeatherDisplay:10.37,2013-08-10 05:31:00,
2013-08-09 22:36:00,57.0,42.8,29.93,SW,225,1.2,0.0,59,0.00,CLR,,0.00,WeatherDisplay:10.37,2013-08-10 05:36:00,
2013-08-09 22:41:00,57.0,43.3,29.93,West,270,1.2,1.2,60,0.00,CLR,,0.00,WeatherDisplay:10.37,2013-08-10 05:41:00,
2013-08-09 22:46:00,57.0,43.3,29.93,SW,225,1.2,0.0,60,0.00,CLR,,0.00,WeatherDisplay:10.37,2013-08-10 05:46:00,
2013-08-09 22:51:00,56.8,43.1,29.93,SW,225,1.2,1.6,60,0.00,CLR,,0.00,WeatherDisplay:10.37,2013-08-10 05:51:00,
2013-08-09 22:56:00,56.7,43.4,29.93,West,270,1.2,0.0,61,0.00,CLR,,0.00,WeatherDisplay:10.37,2013-08-10 05:56:00,
2013-08-09 23:01:00,56.5,43.2,29.93,SW,225,1.2,0.0,61,0.00,CLR,,0.00,WeatherDisplay:10.37,2013-08-10 06:01:00,
2013-08-09 23:06:00,56.5,43.2,29.93,West,270,1.2,0.0,61,0.00,CLR,,0.00,WeatherDisplay:10.37,2013-08-10 06:06:00,
2013-08-09 23:11:00,56.3,43.0,29.93,West,270,1.2,0.0,61,0.00,CLR,,0.00,WeatherDisplay:10.37,2013-08-10 06:11:00,
2013-08-09 23:16:00,56.3,43.0,29.93,SW,225,1.2,0.0,61,0.00,CLR,,0.00,WeatherDisplay:10.37,2013-08-10 06:16:00,
2013-08-09 23:21:00,56.3,43.0,29.93,South,180,1.2,0.0,61,0.00,CLR,,0.00,WeatherDisplay:10.37,2013-08-10 06:21:00,
2013-08-09 23:26:00,55.9,42.7,29.93,SW,225,1.2,0.0,61,0.00,CLR,,0.00,WeatherDisplay:10.37,2013-08-10 06:26:00,
2013-08-09 23:31:00,55.9,43.1,29.93,North,0,2.3,0.0,62,0.00,CLR,,0.00,WeatherDisplay:10.37,2013-08-10 06:31:00,
2013-08-09 23:36:00,55.9,43.1,29.93,West,270,0.0,0.0,62,0.00,CLR,,0.00,WeatherDisplay:10.37,2013-08-10 06:36:00,
2013-08-09 23:41:00,55.9,43.1,29.94,SW,225,1.2,1.6,62,0.00,CLR,,0.00,WeatherDisplay:10.37,2013-08-10 06:41:00,
2013-08-09 23:46:00,55.9,43.5,29.94,West,270,3.5,0.0,63,0.00,CLR,,0.00,WeatherDisplay:10.37,2013-08-10 06:46:00,
2013-08-09 23:51:00,55.6,43.2,29.95,SW,225,1.2,0.0,63,0.00,CLR,,0.00,WeatherDisplay:10.37,2013-08-10 06:51:00,
2013-08-09 23:56:00,55.8,43.3,29.95,West,270,1.2,0.0,63,0.00,CLR,,0.00,WeatherDisplay:10.37,2013-08-10 06:56:00,